{"data":{"norad_id":41549,"intl_designator":"2016-030A","name":"GSAT0211 (GALILEO 14)","alt_names":[],"object_type":"PAYLOAD","status":"ACTIVE","operator":null,"country":"ESA","launch_date":"2016-05-24","launch_site_code":"FRGUI","launch_vehicle":null,"mission":null,"orbit_class":"UNKNOWN","rcs_meters":6.5968,"size_class":null,"mass_kg":null,"dimensions":null,"purposes":["earth_obs","nav"],"wikipedia_slug":null,"has_3d_model":false,"image_url":null,"decayed_at":null,"tle_current":{"epoch":"2026-09-19T05:40:26.149728Z","epoch_age_seconds":131097,"freshness":"FRESH","line1":"1 41549U 16030A   26262.23641377  .00000017  00000+0  00000+0 0  9990","line2":"2 41549  55.0739 219.1095 0003823 336.6356  23.3205  1.70473155 64276","mean_motion":1.70473155,"eccentricity":0.0003823,"inclination_deg":55.0739,"raan_deg":219.1095,"arg_perigee_deg":336.6356,"mean_anomaly_deg":23.3205,"bstar":0,"rev_number":6427,"period_min":844.70777818361,"perigee_km":23210.964632821,"apogee_km":23233.597112327,"semimajor_km":29600.417872574,"source":"CELESTRAK","updated_at":"2026-09-20T09:00:46.494127Z"}}}